Regional Weather Roundup
Issued by NWS Cleveland, OH

Home | Current Version | Previous Version | Graphics & Text | Print | Product List | Glossary On
Versions: 1 2 3 4 5 6 7 8 9 10 11 12 13 14 15 16 17 18 19 20 21 22 23 24 25 26 27 28 29 30 31 32 33 34 35 36 37 38 39 40 41 42 43 44 45 46 47 48 49 50
000
ASUS41 KCLE 220402
RWRCLE
OHIO REGIONAL WEATHER ROUNDUP
NATIONAL WEATHER SERVICE CLEVELAND, OH
1200 AM EDT FRI AUG 22 2014

NOTE: "FAIR" INDICATES FEW OR NO CLOUDS BELOW 12,000 FEET WITH NO
SIGNIFICANT WEATHER AND/OR OBSTRUCTIONS TO VISIBILITY.

OHZ001>008-015>018-024>027-034-035-043-044-220500-
   NORTHWEST OHIO

CITY           SKY/WX    TMP DP  RH WIND       PRES   REMARKS
DEFIANCE       CLOUDY    74  70  87 CALM      29.98S
FINDLAY        CLOUDY    73  69  87 SE5       29.98F
TOLEDO EXPRESS CLOUDY    71  70  96 CALM      29.98S
TOLEDO EXEC    CLOUDY    74  68  81 SW6       29.99F
LIMA           LGT RAIN  73  72  96 S12       29.98F
$$

OHZ009>014-019>023-028>033-038-089-220500-
   NORTHEAST OHIO

CITY           SKY/WX    TMP DP  RH WIND       PRES   REMARKS
CLE-HOPKINS    CLOUDY    72  68  87 S7        30.02S
CLE-LAKEFRONT  CLOUDY    75  68  78 SW8       29.99R
CUY CO. ARPT   NOT AVBL
LORAIN-ELYRIA  CLOUDY    75  68  78 SW5       30.01F
ASHTABULA      MOCLDY    70  68  93 S3        30.01F FOG
AKRON-CANTON   CLOUDY    71  67  87 SW5       30.04R
WOOSTER        CLOUDY    70  67  90 SW5       30.04S
MANSFIELD      CLOUDY    70  68  93 S5        30.03F
YOUNGSTOWN     CLOUDY    69  67  93 SW6       30.03S
$$

OHZ042-051>053-060>062-070>072-077>081-220500-
  SOUTHWEST OHIO

CITY           SKY/WX    TMP DP  RH WIND       PRES   REMARKS
CINC-COVINGTON CLOUDY    77  73  87 CALM      30.05R
CINC-LUNKEN    CLOUDY    73  73 100 CALM      30.05R FOG
HAMILTON       CLOUDY    75  73  94 CALM      30.05R THUNDER
DAYTON         TSTM      70  67  90 W15       30.04S FOG
WRIGHT-PAT AFB TSTM      73  73 100 SW15      30.03R FOG
DAYTON GENERAL TSTM      73  70  90 NW18G32   30.09R FOG
WILMINGTON     CLOUDY    73  71  93 S8        30.03F FOG
$$

OHZ036-037-039>041-045>050-054>059-063>069-073>076-082>088-220500-
  CENTRAL AND SOUTHEAST OHIO

CITY           SKY/WX    TMP DP  RH WIND       PRES   REMARKS
COLUMBUS       CLOUDY    74  68  81 SE7       30.02F
OSU AIRPORT    CLOUDY    72  70  93 SE8       30.01F
BOLTON FIELD   CLOUDY    71  71 100 SE5       30.02F FOG
RICKENBACK AFB CLOUDY    70  66  86 CALM      30.02F FOG
NEWARK         CLOUDY    70  68  93 CALM      30.03F
MARION         CLOUDY    71  67  87 S8        30.00F
LANCASTER      CLOUDY    71  69  93 SE6       30.04S
ZANESVILLE     PTCLDY    69  66  90 CALM      30.05S
NEW PHILLY     CLOUDY    69  68  96 CALM      30.05S
$$


USA.gov is the U.S. government's official web portal to all federal, state and local government web resources and services.